Time,TemperatureF,DewpointF,PressureIn,WindDirection,WindDirectionDegrees,WindSpeedMPH,WindSpeedGustMPH,Humidity,HourlyPrecipIn,Conditions,Clouds,dailyrainin,SoftwareType,DateUTC
2013-06-29 00:55:00,74.9,73.4,29.89,SSW,192,0.0,2.0,95,0.00,,BKN110,0.01,VWS V14.00,2013-06-29 04:55:00,
2013-06-29 01:55:00,74.7,73.5,29.86,SSW,192,0.0,0.0,96,0.00,,SCT250,0.01,VWS V14.00,2013-06-29 05:55:00,
2013-06-29 02:55:00,75.7,74.8,29.85,SSW,192,0.0,0.0,97,0.00,,SCT250,0.01,VWS V14.00,2013-06-29 06:55:00,
2013-06-29 03:55:00,75.9,74.7,29.84,SSW,192,0.0,2.0,96,0.00,,SCT250,0.01,VWS V14.00,2013-06-29 07:55:00,
2013-06-29 04:55:00,75.4,73.6,29.88,ESE,103,4.0,12.0,94,0.70,,FEW250,0.03,VWS V14.00,2013-06-29 08:55:00,
2013-06-29 05:55:00,74.6,72.8,29.88,SSE,164,0.0,16.0,94,0.00,,SCT250,0.23,VWS V14.00,2013-06-29 09:55:00,
2013-06-29 06:55:00,75.0,73.5,29.86,SE,134,0.0,5.0,95,0.00,,BKN080,0.24,VWS V14.00,2013-06-29 10:55:00,
2013-06-29 07:55:00,76.2,74.3,29.86,SE,135,0.0,1.0,94,0.00,,BKN250,0.24,VWS V14.00,2013-06-29 11:55:00,
2013-06-29 08:55:00,82.1,76.8,29.87,South,182,0.0,2.0,84,0.00,,BKN250,0.24,VWS V14.00,2013-06-29 12:55:00,
2013-06-29 09:55:00,84.8,76.4,29.86,ESE,112,0.0,6.0,76,0.00,,BKN250,0.24,VWS V14.00,2013-06-29 13:55:00,
2013-06-29 10:55:00,86.6,77.3,29.86,South,190,2.0,9.0,74,0.00,,BKN250,0.24,VWS V14.00,2013-06-29 14:55:00,
2013-06-29 11:55:00,86.3,76.2,29.86,South,174,0.0,10.0,72,0.00,,BKN250,0.24,VWS V14.00,2013-06-29 15:55:00,
2013-06-29 12:55:00,87.7,77.6,29.84,SSE,157,0.0,11.0,72,0.00,,BKN250,0.24,VWS V14.00,2013-06-29 16:55:00,
2013-06-29 13:55:00,88.1,76.7,29.83,SSE,150,0.0,12.0,69,0.00,,BKN250,0.24,VWS V14.00,2013-06-29 17:55:00,
2013-06-29 14:55:00,88.1,76.7,29.82,SE,138,0.0,15.0,69,0.00,,SCT250,0.24,VWS V14.00,2013-06-29 18:55:00,
2013-06-29 15:55:00,88.2,77.6,29.79,South,184,2.0,14.0,71,0.00,,SCT250,0.24,VWS V14.00,2013-06-29 19:55:00,
2013-06-29 16:55:00,75.3,71.5,29.84,SSW,194,0.0,25.0,88,1.06,,SCT250,0.83,VWS V14.00,2013-06-29 20:55:00,
2013-06-29 17:55:00,76.7,74.8,29.85,SSW,207,0.0,4.0,94,0.06,,BKN040,1.05,VWS V14.00,2013-06-29 21:55:00,
2013-06-29 18:55:00,77.4,75.9,29.83,SSW,207,0.0,2.0,95,0.00,,-RA,1.08,VWS V14.00,2013-06-29 22:55:00,
2013-06-29 19:55:00,78.0,76.5,29.85,SW,218,0.0,5.0,95,0.00,,BKN090,1.08,VWS V14.00,2013-06-29 23:55:00,
2013-06-29 20:55:00,77.7,76.2,29.85,SW,218,0.0,0.0,95,0.00,,BKN200,1.08,VWS V14.00,2013-06-30 00:55:00,
2013-06-29 21:55:00,77.3,75.1,29.87,SW,218,0.0,3.0,93,0.00,,BKN220,1.08,VWS V14.00,2013-06-30 01:55:00,
2013-06-29 22:55:00,77.1,75.2,29.87,SW,218,0.0,0.0,94,0.00,,BKN140,1.08,VWS V14.00,2013-06-30 02:55:00,
2013-06-29 23:57:00,77.0,75.1,29.86,SW,218,0.0,2.0,94,0.00,,BKN240,1.08,VWS V14.00,2013-06-30 03:57:00,